Preview of NWS' New Version of Forecast
This preview is not operational and should not be used for support decisions.

Regional Weather Roundup (RWR)

Issued by National Weather Service (NWS)

                            
000
ASUS46 KSEW 172210
RWRWA 

WASHINGTON REGIONAL WEATHER ROUNDUP
NATIONAL WEATHER SERVICE SEATTLE WA
200 PM PST SUN FEB 17 2019

NOTE:"FAIR" INDICATES FEW OR NO CLOUDS BELOW 12,000 FEET WITH NO 
SIGNIFICANT WEATHER AND/OR OBSTRUCTIONS TO VISIBILITY.

WAZ507-509-555>559-172300-
SEATTLE, TACOMA, EVERETT, AND VICINITY
  
CITY           SKY/WX    TMP DP  RH WIND       PRES   REMARKS
EVERETT        PTSUNNY   41  30  65 NW7       30.19R                  
BOEING FIELD   CLOUDY    42  35  76 CALM      30.21R                  
RENTON         CLOUDY    42  35  76 W5        30.21R                  
SEATAC AIRPORT CLOUDY    41  34  76 N6        30.20R                  
JBLM-MCCHORD   PTSUNNY   40  40 100 CALM      30.21R                  
PUYALLUP       CLOUDY    39  37  93 W3        30.20R                  
BREMERTON      PTSUNNY   41  34  76 NE3       30.20R                  
JBLM-FT LEWIS  PTSUNNY   40  40 100 W3        30.20S                  
TACOMA NARROWS PTSUNNY   39  35  86 CALM      30.22R                  
$$
 
WAZ001-503-506-510-514-515-172300-
NORTH INTERIOR
  
CITY           SKY/WX    TMP DP  RH WIND       PRES   REMARKS
BELLINGHAM     SUNNY     43  33  68 NW10      30.21R                  
FRIDAY HARBOR  SUNNY     44  33  65 VRB6      30.23S                  
EASTSOUND      MOSUNNY   43  34  70 NW9       30.22S                  
PORT ANGELES   SUNNY     41  33  73 SE8       30.23R                  
EDIZ HOOK      FAIR      44  35  70 SE5       30.24R                  
PORT TOWNSEND  FAIR      45  34  65 VRB8      30.21R                  
NAS WHIDBEY    PTSUNNY   48  33  56 NW16      30.25S                  
ARLINGTON      CLOUDY    40  32  73 N5        30.21R                  
BURLINGTON     SUNNY     45  34  65 NW15      30.20S                  
$$
 
WAZ020-022-039-040-504-511-512-172300-
SOUTHWEST INTERIOR
  
CITY           SKY/WX    TMP DP  RH WIND       PRES   REMARKS
SHELTON        CLOUDY    40  34  79 CALM      30.19S                  
OLYMPIA        CLOUDY    38  33  82 NW3       30.22R                  
CHEHALIS       PTSUNNY   43  34  70 CALM      30.22R                  
KELSO          CLOUDY    41  33  73 NW8       30.23R                  
VANCOUVER      CLOUDY    42  31  64 VRB6      30.20S                  
SCAPPOOSE, OR  CLOUDY    44  33  65 VRB3      30.20S                  
PORTLAND, OR   PTSUNNY   43  32  65 NW8       30.21R                  
$$
 
WAZ021-516-517-172300-
WASHINGTON COAST
  
CITY           SKY/WX    TMP DP  RH WIND       PRES   REMARKS
FORKS          SUNNY     48  30  49 N6        30.21R                  
HOQUIAM        PTSUNNY   44  38  79 E7        30.22R                  
ASTORIA, OR    SUNNY     45  35  68 NE6       30.21R                  
$$
 
WAZ019-023-024-040-567>569-172300-
CASCADE MOUNTAINS AND COLUMBIA GORGE
  
CITY           SKY/WX    TMP DP  RH WIND       PRES   REMARKS
STAMPEDE PASS  FOG       27  24  89 W7        30.01S VSB 3/4          
TROUTDALE, OR  CLOUDY    43  33  68 W6        30.20R                  
HOOD RIVER, OR PTCLDY    43  30  61 W3        30.13S                  
THE DALLES, OR MOSUNNY   35  29  78 E8        30.15S                  
$$

WAZ026-027-041>044-520-521-172300-
EAST SLOPES
  
CITY           SKY/WX    TMP DP  RH WIND       PRES   REMARKS
OMAK           PTSUNNY   36  21  54 N21       30.13R                  
WENATCHEE      CLOUDY    32  25  75 SW3       30.11R                  
ELLENSBURG     CLOUDY    35  26  69 SE6       30.07R                  
YAKIMA         CLOUDY    39  27  62 CALM      30.11R                  
SUNNYSIDE ARPT CLOUDY    36  31  83 CALM      30.12                   
YAKIMA TC      MOCLDY    35  27  71 CALM      30.08R                  
$$

WAZ028-034-035-172300-
COLUMBIA BASIN
  
CITY           SKY/WX    TMP DP  RH WIND       PRES   REMARKS
EPHRATA        CLOUDY    36  29  75 NE13      30.10R                  
MOSES LAKE     CLOUDY    35  28  75 NE14      30.11R WCI  26          
PASCO          CLOUDY    36  30  79 W6        30.15R                  
RICHLAND ARPT  CLOUDY    38  32  78 W8        30.15R                  
HERMISTON, OR  CLOUDY    35  31  85 W6        30.13R                  
$$

WAZ036>038-172300-
NORTHEAST WASHINGTON
  
CITY           SKY/WX    TMP DP  RH WIND       PRES   REMARKS
SPOKANE GEIGER CLOUDY    28  16  60 E14       30.06R WCI  17          
SPOKANE FELTS  CLOUDY    31  18  58 NE10G16   30.09R WCI  22          
FAIRCHILD AFB  CLOUDY    26  22  87 N14       30.05R WCI  14          
COEURDALENE,ID PTSUNNY   25  17  72 N18       30.08R WCI  11          
DEER PARK      CLOUDY    26  15  63 NE17      30.10R WCI  13          
$$

WAZ029>033-172300-
SOUTHEAST WASHINGTON
  
CITY           SKY/WX    TMP DP  RH WIND       PRES   REMARKS
PULLMAN        LGT SNOW  27  24  89 NW9       30.03R FOG              
LEWISTON, ID   CLOUDY    34  27  75 NW9       30.06R                  
WALLA WALLA    LGT SNOW  33  29  85 S5        30.10R FOG              
PENDLETON, OR  CLOUDY    31  29  92 W9        30.08R                  
$$